Amos 1

operational
NORAD ID: 23865 Int'l Des: 1996-030 Owner: IAIS Country: IL
HEOCIRCULAR

About Amos 1

Description loading...

Live Position

Loading 3D Globe...

Upcoming Passes

Altitude History

Altitude vs Time

uPlot chart will show altitude changes over time

Two-Line Element Set

1 23865U 96030B 25344.80850235 -.00000056 00000-0 00000+0 0 9992
2 23865 12.2509 35.6965 0013474 202.1007 193.0601 0.97116926106750
Epoch: Dec 10, 2025 • Age: 12 hours

Current Status

Altitude 36636.9 km
Velocity 3.05 km/s
Sub-Earth Point -4.81°S, 54.1°E
Launch Date May 16, 1996
Age 29.5 years
Type other

Technical Details

Classification Payload
Mass 996.00 kg
Dry Mass 479.00 kg
Total Mass 996.00 kg
Length 2.40 m
Diameter 2.00 m
Span 10.60 m
Shape Box + 2 Pan
Manufacturer IAI
Bus Type Amos
Phase Status Unknown Active Status
Owner/State IAIS/IL

Large Constellations

Loading constellations...